Regional Weather Roundup
Issued by NWS

Home | Current Version | Previous Version | Text Only | Print | Product List | Glossary On
Versions: 1 2 3 4 5 6 7 8 9 10 11 12 13 14 15 16 17 18 19 20 21 22 23 24 25 26 27 28 29 30 31 32 33 34 35 36 37 38 39 40 41 42 43 44 45 46 47 48 49 50
000
ASUS43 KDTX 190210
RWRMI
MICHIGAN HOURLY REGIONAL WEATHER ROUNDUP
NATIONAL WEATHER SERVICE DETROIT/PONTIAC MI
1000 PM EDT WED OCT 18 2017

NOTE: "FAIR" INDICATES FEW OR NO CLOUDS BELOW 12,000 FEET WITH NO
SIGNIFICANT WEATHER AND/OR OBSTRUCTION TO VISIBILITY.

MIZ047>049-052>055-059>063-066>070-074>076-081>083-190300-
SOUTHEAST LOWER MICHIGAN

CITY           SKY/WX    TMP DP  RH WIND       PRES   REMARKS
ADRIAN         CLEAR     52  40  63 SW7       30.12S
ALMA           CLEAR     56  38  49 S12       30.04S
ANN ARBOR      CLEAR     53  42  66 S7        30.10S
BAD AXE        CLEAR     56  39  53 S9        30.04S
CARO           CLEAR     57  39  51 S9        30.04R
DETROIT CITY   CLEAR     61  42  49 SW10      30.10F
DETROIT        CLEAR     57  42  57 S9        30.11F
FLINT          CLEAR     59  40  49 SW9       30.07S
GROSSE ILE     CLEAR     62  43  51 SW10G16   30.10S
HILLSDALE      CLEAR     55  37  50 S9G16     30.10F
HOWELL         CLEAR     56  41  56 S7        30.08S

CITY           SKY/WX    TMP DP  RH WIND       PRES   REMARKS
JACKSON        CLEAR     59  39  47 S9        30.09F
LAMBERTVILLE   CLEAR     60  41  49 S6        30.12S
LANSING        CLEAR     58  38  47 S9        30.07S
LAPEER         FAIR      57  40  52 SW8       30.07S
MASON          CLEAR     58  40  52 CALM      30.08S
MONROE         CLEAR     57  40  51 S5        30.11S
MT. CLEMENS    CLEAR     56  43  61 S9        30.08S
PONTIAC        CLEAR     59  41  51 S8        30.08S
PORT HOPE        N/A     60  40  47 VRB7      30.00S
PORT HURON     CLEAR     54  45  71 S5        30.09S
TRI CITIES     CLEAR     59  41  51 S10       30.04S
MIDLAND        FAIR      57  39  51 S6        30.02S
TROY           CLEAR     60  39  46 S8        30.11S
SAGINAW HB     CLEAR     59  39  47 S13       30.04R
$$
MIZ043>046-050>051-056>058-064>065-071>073-077>080-190300-
SOUTHWEST LOWER MICHIGAN

CITY           SKY/WX    TMP DP  RH WIND       PRES   REMARKS
BATTLE CREEK   CLEAR     56  41  57 S12       30.09R
BENTON HARBOR  CLEAR     58  40  51 S7        30.06F
BIG RAPIDS     CLOUDY    58  37  44 SW8G16    30.00R
COLDWATER      CLEAR     58  37  46 S5        30.11R
FREMONT        FAIR      55  43  65 S6        30.01S
HOLLAND        CLEAR     59  41  51 S12       30.04S
GRAND RAPIDS   PTCLDY    58  41  53 S10       30.04F
IONIA          FAIR      58  40  51 S8        30.04F
KALAMAZOO      CLEAR     55  41  59 S10       30.09R
LUDINGTON      PTCLDY    63  48  58 SW20G29   29.95F
MARSHALL       CLEAR     58  38  48 S7        30.09R
MOUNT PLEASANT CLEAR     61  38  43 S9        30.01S
MUSKEGON       PTCLDY    62  48  60 S13       30.02R
SOUTH HAVEN    CLEAR     61  39  44 S12G17    30.05S
$$
MIZ016>042-190300-
NORTHERN LOWER MICHIGAN

CITY           SKY/WX    TMP DP  RH WIND       PRES   REMARKS
ALPENA         CLEAR     61  41  47 SW14G23   29.92F
BEAVER ISLAND  PTCLDY    62  47  58 SW22G35   29.81F
BELLAIRE       CLOUDY    62  39  44 S9G17     29.90F
CADILLAC       CLOUDY    60  36  40 SW16G23   29.96F
CHARLEVOIX     CLOUDY    61  43  50 S17G28    29.88F
FRANKFORT      PTCLDY    64  48  55 S20G33    29.91F
GAYLORD        CLOUDY    58  36  43 SW20G29   29.92F
GRAYLING       CLOUDY    57  38  50 S7        29.96F
HARBOR SPRINGS CLOUDY    61  40  45 SW16G23   29.86F
HOUGHTON LAKE  CLOUDY    58  39  49 SW10      29.99R
MANISTEE       PTCLDY    63  46  54 S10G17    29.93F
OSCODA         CLEAR     58  40  49 SW12G22   29.97S
PELLSTON       CLOUDY    62  41  46 SW15G32   29.84F
ROGERS CITY    CLOUDY    60  40  47 SW13G24   29.89R
TRAVERSE CITY  CLOUDY    63  40  42 SW10G23   29.89F
$$
MIZ007>008-015-190300-
EASTERN UPPER MICHIGAN

CITY           SKY/WX    TMP DP  RH WIND       PRES   REMARKS
KINROSS        CLOUDY    61  44  53 SW15G21   29.81F
MACKINAC ISLAN CLOUDY    63  41  45 S16G26    29.82F
NEWBERRY       CLOUDY    59  51  76 S20G29    29.77S
S. S. MARIE    CLOUDY    63  44  50 SW15G28   29.79S
MUNISING         N/A     62  51  67 S8G18     29.73R
$$
MIZ004>006-011>014-085-190300-
CENTRAL UPPER MICHIGAN

CITY           SKY/WX    TMP DP  RH WIND       PRES   REMARKS
MANISTIQUE     PTCLDY    58  52  81 SW14G23   29.78S
ESCANABA       CLEAR     60  53  77 S15G24    29.77S
MENOMINEE      CLEAR     64  47  53 SW12      29.81S
SAWYER-GWINN   CLEAR     57  46  67 SW8       29.74R
$$
MIZ001>003-009>011-084-190300-
WESTERN UPPER MICHIGAN

CITY           SKY/WX    TMP DP  RH WIND       PRES   REMARKS
IRON MOUNTAIN  CLEAR     65  46  50 SW12G21   29.76R
HOUGHTON       CLEAR     58  30  34 W24G37    29.71R
COPPER HARBOR    N/A     61  28  28 NW14G31   29.67R
IRONWOOD       CLEAR     55  24  30 W12       29.80R
$$

ABBREVIATIONS USED IN REMARKS
   TC - TEMPERATURE IN CELSIUS
  WCI - WIND CHILL INDEX
   HX - HEAT INDEX
  VSB - VISIBILITY




USA.gov is the U.S. government's official web portal to all federal, state and local government web resources and services.